Haines, AK

2:28 AM AKST on February 22, 2017 (GMT -0900)
Haines

Weather History for PAHN - November, 2013

Change the Weather History Date:

Friday, November 8, 2013

  Actual Average Record
Temperature  
Mean Temperature 28 °F -  
Max Temperature 32 °F 36 °F 48 °F (2016)
Min Temperature 24 °F 29 °F 10 °F (1989)
Degree Days  
Heating Degree Days 37    
Moisture  
Dew Point 13 °F    
Average Humidity 54    
Maximum Humidity 60    
Minimum Humidity 47    
Precipitation  
Precipitation 0.00 in - - ()
Sea Level Pressure  
Sea Level Pressure 30.09 in    
Wind  
Wind Speed 9 mph (NW)    
Max Wind Speed 17 mph    
Max Gust Speed 24 mph    
Visibility 9 miles    
Events      
Averages and records for this station are not official NWS values.
T = Trace of Precipitation, MM = Missing Value Source: NWS Daily Summary

Daily Weather History Graph

Daily Weather History Graph

Search for Another Location

Airport or City:

Trip Planner

Search our weather history database for the weather conditions in past years. The results will help you decide how hot, cold, wet, or windy it might be!

Date:

Astronomy

Nov. 08, 2013 Rise Set
Actual Time 7:39 AM AKST 3:51 PM AKST
Civil Twilight 6:53 AM AKST 4:37 PM AKST
Nautical Twilight 6:04 AM AKST 5:26 PM AKST
Astronomical Twilight 5:16 AM AKST 6:13 PM AKST
Moon 12:39 PM AKST (11/8) 9:27 PM AKST (11/8)
Length of Visible Light 9h 43m
Length of Day
8h 11m
Waxing Crescent, 34% of the Moon is Illuminated
Nov 8
Waxing Crescent
Nov 9
First Quarter
Nov 17
Full
Nov 25
Last Quarter
Dec 2
New

Hourly Weather History & Observations

Time (AKST) Temp. Windchill Dew Point Humidity Pressure Visibility Wind Dir Wind Speed Gust Speed Precip Events Conditions
12:54 AM 32.0 °F 25.6 °F 16.0 °F 52% 29.91 in 10.0 mi NNW 6.9 mph - N/A   Overcast
1:54 AM 30.0 °F 21.7 °F 16.0 °F 56% 29.93 in 10.0 mi NW 9.2 mph - N/A   Clear
2:08 AM 30.2 °F 22.6 °F 15.8 °F 55% 29.92 in 8.0 mi NW 8.1 mph - N/A   Partly Cloudy
2:54 AM 30.0 °F 21.7 °F 15.1 °F 54% 29.94 in 8.0 mi NW 9.2 mph - N/A   Partly Cloudy
3:54 AM 30.0 °F 22.4 °F 15.1 °F 54% 29.96 in 10.0 mi WNW 8.1 mph - N/A   Partly Cloudy
4:54 AM 28.9 °F 20.4 °F 14.0 °F 54% 29.98 in 10.0 mi NW 9.2 mph - N/A   Clear
5:54 AM 28.0 °F 19.3 °F 14.0 °F 56% 29.99 in 10.0 mi NW 9.2 mph - N/A   Clear
6:54 AM 28.0 °F 18.6 °F 14.0 °F 56% 30.00 in 10.0 mi WNW 10.4 mph - N/A   Clear
7:54 AM 27.0 °F 18.0 °F 14.0 °F 58% 30.03 in 10.0 mi NW 9.2 mph - N/A   Clear
8:54 AM 28.0 °F 17.0 °F 12.9 °F 53% 30.05 in 10.0 mi NW 13.8 mph - N/A   Clear
9:54 AM 28.9 °F 19.2 °F 14.0 °F 54% 30.06 in 10.0 mi WNW 11.5 mph - N/A   Clear
10:54 AM 30.0 °F 21.7 °F 14.0 °F 51% 30.07 in 10.0 mi WNW 9.2 mph - N/A   Clear
11:54 AM 30.9 °F 22.2 °F 12.9 °F 47% 30.08 in 10.0 mi WNW 10.4 mph - N/A   Clear
12:54 PM 30.9 °F 22.8 °F 14.0 °F 50% 30.09 in 10.0 mi WNW 9.2 mph - N/A   Clear
1:54 PM 30.9 °F 22.2 °F 12.9 °F 47% 30.10 in 10.0 mi NW 10.4 mph - N/A   Clear
2:54 PM 30.0 °F 22.4 °F 12.9 °F 49% 30.11 in 10.0 mi NW 8.1 mph - N/A   Clear
3:54 PM 28.9 °F 21.9 °F 12.9 °F 51% 30.12 in 10.0 mi NW 6.9 mph - N/A   Clear
4:54 PM 28.0 °F 20.0 °F 14.0 °F 56% 30.13 in 10.0 mi NW 8.1 mph - N/A   Clear
5:54 PM 28.0 °F 20.0 °F 12.9 °F 53% 30.15 in 10.0 mi NW 8.1 mph - N/A   Clear
6:54 PM 27.0 °F 19.5 °F 12.0 °F 53% 30.17 in 10.0 mi NNW 6.9 mph - N/A   Clear
7:54 PM 27.0 °F 18.0 °F 12.0 °F 53% 30.19 in 10.0 mi NW 9.2 mph - N/A   Clear
8:54 PM 26.1 °F 17.6 °F 12.0 °F 55% 30.22 in 10.0 mi NW 8.1 mph - N/A   Clear
9:54 PM 26.1 °F 15.6 °F 12.0 °F 55% 30.22 in 10.0 mi NNW 11.5 mph - N/A   Clear
10:54 PM 25.0 °F 14.2 °F 12.0 °F 58% 30.24 in 6.0 mi NW 11.5 mph - N/A   Haze
11:05 PM 26.6 °F 13.8 °F 10.4 °F 51% 30.23 in 4.0 mi NW 17.3 mph 24.2 mph N/A   Haze
11:18 PM 24.8 °F 14.0 °F 12.2 °F 59% 30.23 in 6.0 mi NW 11.5 mph 19.6 mph N/A   Haze
11:32 PM 24.8 °F 13.4 °F 12.2 °F 59% 30.23 in 5.0 mi NW 12.7 mph 21.9 mph N/A   Haze
11:54 PM 24.1 °F 12.0 °F 12.0 °F 60% 30.24 in 10.0 mi NW 13.8 mph 20.7 mph N/A   Partly Cloudy